Rochester, NH

5:03 AM EST on February 11, 2016 (GMT -0500)
Skyhaven

Weather History for KDAW - December, 2013

Change the Weather History Date:

Friday, December 6, 2013

  Actual Average (KSFM) Record (KSFM)
Temperature  
Mean Temperature 41 °F -  
Max Temperature 48 °F 38 °F 71 °F (2001)
Min Temperature 34 °F 21 °F 1 °F (2007)
Degree Days  
Heating Degree Days 24    
Moisture  
Dew Point 38 °F    
Average Humidity 86    
Maximum Humidity 100    
Minimum Humidity 55    
Precipitation  
Precipitation 0.07 in - - ()
Sea Level Pressure  
Sea Level Pressure 29.92 in    
Wind  
Wind Speed 4 mph (WNW)    
Max Wind Speed 10 mph    
Max Gust Speed 20 mph    
Visibility 5 miles    
Events Fog , Rain , Snow    
Averages and records for this station are not official NWS values.
T = Trace of Precipitation, MM = Missing Value Source: NWS Daily Summary

Daily Weather History Graph

Daily Weather History Graph

Search for Another Location

Airport or City:

Trip Planner

Search our weather history database for the weather conditions in past years. The results will help you decide how hot, cold, wet, or windy it might be!

Date:

Astronomy

Dec. 06, 2013 Rise Set
Actual Time 7:01 AM EST 4:08 PM EST
Civil Twilight 6:29 AM EST 4:40 PM EST
Nautical Twilight 5:53 AM EST 5:16 PM EST
Astronomical Twilight 5:19 AM EST 5:50 PM EST
Moon 10:00 AM EST (12/6) 8:40 PM EST (12/6)
Length of Visible Light 10h 11m
Length of Day
9h 06m
Waxing Crescent, 19% of the Moon is Illuminated
Dec 6
Waxing Crescent
Dec 9
First Quarter
Dec 17
Full
Dec 25
Last Quarter
Jan 1
New

Hourly Weather History & Observations

Time (EST) Temp. Windchill Dew Point Humidity Pressure Visibility Wind Dir Wind Speed Gust Speed Precip Events Conditions
12:51 AM 37.9 °F 32.7 °F 36.0 °F 93% 29.89 in 0.2 mi NNW 6.9 mph - 0.00 in Fog Fog
1:05 AM 37.9 °F - 37.0 °F 97% 29.88 in 0.5 mi Calm Calm - N/A Fog Fog
1:48 AM 39.2 °F - 37.4 °F 93% 29.87 in 1.2 mi Calm Calm - N/A   Overcast
1:51 AM 39.0 °F - 39.0 °F 100% 29.87 in 1.2 mi Calm Calm - N/A   Overcast
2:04 AM 39.0 °F - 37.0 °F 93% 29.86 in 0.8 mi Calm Calm - N/A   Overcast
2:51 AM 39.9 °F 36.7 °F 39.0 °F 97% 29.83 in 0.5 mi SE 4.6 mph - N/A Fog Fog
3:00 AM 39.9 °F 37.8 °F 39.0 °F 97% 29.84 in 0.2 mi South 3.5 mph - N/A Fog Fog
3:10 AM 39.9 °F - 39.0 °F 97% 29.86 in 0.5 mi Calm Calm - N/A Fog Fog
3:51 AM 41.0 °F - 39.9 °F 96% 29.85 in 0.5 mi Calm Calm - N/A Fog Fog
4:00 AM 41.0 °F - 39.9 °F 96% 29.85 in 0.5 mi Calm Calm - N/A Fog Fog
4:27 AM 42.1 °F - 41.0 °F 96% 29.84 in 0.8 mi Calm Calm - N/A   Overcast
4:39 AM 43.0 °F - 42.1 °F 97% 29.85 in 1.0 mi Calm Calm - N/A   Mist
4:47 AM 42.8 °F 41.1 °F 41.0 °F 93% 29.85 in 2.0 mi NNW 3.5 mph - N/A   Overcast
4:51 AM 42.1 °F 40.2 °F 39.9 °F 92% 29.85 in 2.0 mi NNW 3.5 mph - N/A   Overcast
5:02 AM 42.1 °F 40.2 °F 39.9 °F 92% 29.85 in 1.5 mi NW 3.5 mph - N/A   Overcast
5:09 AM 42.1 °F - 41.0 °F 96% 29.85 in 1.8 mi Calm Calm - N/A   Overcast
5:42 AM 42.1 °F 40.2 °F 41.0 °F 96% 29.88 in 2.5 mi NW 3.5 mph - 0.00 in   Overcast
5:46 AM 42.8 °F 39.3 °F 41.0 °F 93% 29.87 in 1.8 mi NW 5.8 mph - 0.00 in Rain Light Rain
5:51 AM 43.0 °F 39.5 °F 41.0 °F 93% 29.88 in 1.2 mi Variable 5.8 mph - 0.00 in Rain Light Rain
6:02 AM 44.1 °F 42.5 °F 42.1 °F 93% 29.89 in 2.0 mi Variable 3.5 mph - 0.00 in Rain Light Rain
6:15 AM 46.0 °F 43.1 °F 45.0 °F 96% 29.90 in 4.0 mi West 5.8 mph - 0.01 in Rain Light Rain
6:44 AM 44.1 °F 40.1 °F 43.0 °F 96% 29.89 in 5.0 mi NW 6.9 mph - 0.01 in   Overcast
6:51 AM 45.0 °F 41.2 °F 44.1 °F 97% 29.89 in 6.0 mi NW 6.9 mph - 0.01 in   Overcast
7:51 AM 46.0 °F 43.9 °F 44.1 °F 93% 29.90 in 10.0 mi WNW 4.6 mph - N/A   Overcast
8:51 AM 46.9 °F - 45.0 °F 93% 29.94 in 9.0 mi WNW 4.6 mph - 0.02 in   Overcast
9:51 AM 48.0 °F - 45.0 °F 89% 29.95 in 10.0 mi Calm Calm - N/A   Overcast
10:04 AM 48.0 °F - 45.0 °F 89% 29.96 in 10.0 mi Calm Calm - N/A   Overcast
10:24 AM 46.9 °F - 44.1 °F 90% 29.95 in 10.0 mi Variable 3.5 mph - N/A   Overcast
10:51 AM 46.9 °F - 43.0 °F 86% 29.95 in 10.0 mi WNW 4.6 mph - N/A   Overcast
11:51 AM 45.0 °F 40.1 °F 37.9 °F 76% 29.95 in 10.0 mi WNW 9.2 mph - N/A   Overcast
12:51 PM 45.0 °F 41.2 °F 39.0 °F 80% 29.97 in 10.0 mi West 6.9 mph - N/A   Overcast
1:51 PM 45.0 °F 41.2 °F 37.9 °F 76% 29.95 in 10.0 mi WNW 6.9 mph - N/A   Overcast
2:51 PM 45.0 °F 39.7 °F 33.1 °F 63% 29.98 in 10.0 mi WNW 10.4 mph 19.6 mph N/A   Partly Cloudy
3:51 PM 44.1 °F 38.6 °F 28.9 °F 55% 29.99 in 10.0 mi WNW 10.4 mph - N/A   Mostly Cloudy
4:51 PM 43.0 °F 40.3 °F 30.0 °F 60% 30.03 in 10.0 mi WNW 4.6 mph - N/A   Overcast
5:51 PM 42.1 °F 38.4 °F 28.9 °F 60% 30.01 in 10.0 mi Variable 5.8 mph - N/A   Overcast
6:51 PM 41.0 °F 37.1 °F 27.0 °F 57% 30.03 in 10.0 mi WNW 5.8 mph - 0.00 in Rain Light Rain
7:51 PM 39.9 °F 34.5 °F 28.0 °F 63% 30.04 in 10.0 mi WNW 8.1 mph - 0.00 in   Overcast
8:51 PM 39.0 °F 32.8 °F 24.1 °F 55% 30.04 in 10.0 mi NNW 9.2 mph - 0.00 in   Overcast
9:51 PM 37.9 °F 33.5 °F 27.0 °F 65% 30.11 in 10.0 mi NW 5.8 mph - 0.01 in Rain Light Rain
10:51 PM 34.0 °F 28.8 °F 28.9 °F 82% 30.06 in 10.0 mi NW 5.8 mph - 0.02 in   Overcast
11:51 PM 34.0 °F 26.6 °F 28.9 °F 82% 30.09 in 7.0 mi NW 9.2 mph - 0.01 in Snow Light Snow